HGB3300 VHHH-ZGSZ

Flight info

Callsign HGB3300
Flight time 0h 24m
Altitude 5900
Route BEKOL
Aircraft B738/M-SDE2E3FGHIRWYZ/LB1

Departure

Time 2026-05-05 19:04
Airport Hong Kong International Airport (VHHH)

Arrival

Time 2026-05-05 19:28
Airport Shenzhen Bao'an International Airport (ZGSZ)
Time Latitude Longitude Altitude Speed Heading
2026-05-05 18:27 22.31041 113.91685 35 ft 0 kts 72°
2026-05-05 18:31 22.31040 113.91682 34 ft 0 kts 72°
2026-05-05 18:31 22.31038 113.91677 35 ft 0 kts 72°
2026-05-05 18:54 22.31037 113.91671 35 ft 2 kts 71°
2026-05-05 18:54 22.31031 113.91656 35 ft 2 kts 70°
2026-05-05 18:54 22.31027 113.91640 35 ft 2 kts 71°
2026-05-05 18:54 22.31021 113.91625 35 ft 2 kts 70°
2026-05-05 18:55 22.31017 113.91610 35 ft 2 kts 69°
2026-05-05 18:55 22.31008 113.91596 35 ft 2 kts 43°
2026-05-05 18:55 22.30996 113.91587 35 ft 2 kts 24°
2026-05-05 18:55 22.30981 113.91582 35 ft 2 kts
2026-05-05 18:56 22.30967 113.91583 35 ft 2 kts 344°
2026-05-05 18:56 22.30953 113.91589 35 ft 2 kts 340°
2026-05-05 18:56 22.30939 113.91594 35 ft 0 kts 341°
2026-05-05 18:56 22.30938 113.91595 35 ft 0 kts 341°
2026-05-05 18:58 22.30964 113.91585 35 ft 11 kts 342°
2026-05-05 18:59 22.31054 113.91552 34 ft 15 kts 341°
2026-05-05 18:59 22.31174 113.91508 34 ft 20 kts 342°
2026-05-05 18:59 22.31325 113.91451 35 ft 24 kts 342°
2026-05-05 18:59 22.31412 113.91399 35 ft 13 kts 291°
2026-05-05 19:00 22.31388 113.91286 35 ft 17 kts 251°
2026-05-05 19:00 22.31342 113.91142 34 ft 22 kts 251°
2026-05-05 19:00 22.31284 113.90964 35 ft 27 kts 251°
2026-05-05 19:00 22.31222 113.90771 35 ft 21 kts 250°
2026-05-05 19:01 22.31173 113.90617 35 ft 19 kts 251°
2026-05-05 19:01 22.31123 113.90460 35 ft 24 kts 251°
2026-05-05 19:01 22.31062 113.90271 34 ft 28 kts 251°
2026-05-05 19:01 22.30994 113.90060 35 ft 30 kts 250°
2026-05-05 19:02 22.30967 113.89912 35 ft 13 kts 309°
2026-05-05 19:02 22.31047 113.89874 34 ft 14 kts 339°
2026-05-05 19:02 22.31129 113.89912 34 ft 15 kts 69°
2026-05-05 19:02 22.31134 113.89928 34 ft 1 kts 70°
2026-05-05 19:03 22.31139 113.89941 34 ft 0 kts 71°
2026-05-05 19:03 22.31149 113.89976 35 ft 26 kts 73°
2026-05-05 19:04 22.31287 113.90404 35 ft 88 kts 70°
2026-05-05 19:04 22.31556 113.91235 36 ft 145 kts 72°
2026-05-05 19:04 22.31944 113.92454 796 ft 190 kts 72°
2026-05-05 19:04 22.32307 113.93548 2066 ft 202 kts 72°
2026-05-05 19:05 22.32568 113.94333 2750 ft 199 kts 72°
2026-05-05 19:05 22.32797 113.95029 3119 ft 208 kts 73°
2026-05-05 19:05 22.32972 113.95569 3377 ft 214 kts 73°
2026-05-05 19:06 22.33431 113.97132 4247 ft 224 kts 78°
2026-05-05 19:06 22.33741 113.98785 5148 ft 231 kts 82°
2026-05-05 19:06 22.33999 114.00509 6062 ft 238 kts 82°
2026-05-05 19:06 22.34258 114.02292 6978 ft 245 kts 83°
2026-05-05 19:07 22.34413 114.04137 7688 ft 253 kts 93°
2026-05-05 19:07 22.33983 114.05966 7963 ft 252 kts 122°
2026-05-05 19:07 22.32816 114.07355 7972 ft 248 kts 147°
2026-05-05 19:07 22.31235 114.08253 7971 ft 262 kts 161°
2026-05-05 19:08 22.29466 114.08772 7967 ft 261 kts 175°
2026-05-05 19:08 22.27619 114.08855 7972 ft 274 kts 184°
2026-05-05 19:08 22.25658 114.08768 7961 ft 281 kts 185°
2026-05-05 19:08 22.23703 114.08682 7958 ft 282 kts 184°
2026-05-05 19:09 22.21722 114.08627 7956 ft 282 kts 183°
2026-05-05 19:09 22.19754 114.08775 7949 ft 284 kts 169°
2026-05-05 19:09 22.17939 114.09695 7956 ft 289 kts 144°
2026-05-05 19:09 22.16645 114.11321 7962 ft 292 kts 120°
2026-05-05 19:10 22.16066 114.13419 7962 ft 295 kts 95°
2026-05-05 19:10 22.16337 114.15627 7962 ft 296 kts 70°
2026-05-05 19:10 22.17407 114.17499 7962 ft 295 kts 45°
2026-05-05 19:10 22.19091 114.18747 7964 ft 293 kts 21°
2026-05-05 19:11 22.21076 114.19179 7966 ft 289 kts
2026-05-05 19:11 22.23090 114.19011 7963 ft 288 kts 350°
2026-05-05 19:11 22.25070 114.18648 7965 ft 287 kts 348°
2026-05-05 19:11 22.27055 114.18282 7964 ft 287 kts 349°
2026-05-05 19:12 22.29051 114.17937 7966 ft 287 kts 349°
2026-05-05 19:12 22.31016 114.17602 7965 ft 287 kts 350°
2026-05-05 19:12 22.33046 114.17357 7964 ft 288 kts 353°
2026-05-05 19:12 22.35067 114.17181 7966 ft 288 kts 354°
2026-05-05 19:13 22.37052 114.17020 7965 ft 288 kts 354°
2026-05-05 19:13 22.39081 114.16854 7965 ft 288 kts 354°
2026-05-05 19:13 22.41096 114.16689 7965 ft 288 kts 354°
2026-05-05 19:13 22.43107 114.16526 7965 ft 288 kts 354°
2026-05-05 19:14 22.45111 114.16361 7966 ft 287 kts 354°
2026-05-05 19:14 22.47110 114.16195 7968 ft 287 kts 354°
2026-05-05 19:14 22.49124 114.16028 7964 ft 288 kts 354°
2026-05-05 19:14 22.51156 114.15862 7962 ft 287 kts 354°
2026-05-05 19:15 22.53141 114.15701 7966 ft 287 kts 354°
2026-05-05 19:15 22.55169 114.15536 7963 ft 287 kts 354°
2026-05-05 19:15 22.57167 114.15373 7957 ft 287 kts 354°
2026-05-05 19:15 22.59178 114.15210 7964 ft 288 kts 354°
2026-05-05 19:16 22.61183 114.15048 7967 ft 288 kts 354°
2026-05-05 19:16 22.63182 114.14887 7965 ft 287 kts 354°
2026-05-05 19:16 22.65206 114.14723 7964 ft 288 kts 354°
2026-05-05 19:16 22.67191 114.14413 7966 ft 286 kts 341°
2026-05-05 19:17 22.68932 114.13386 7974 ft 282 kts 318°
2026-05-05 19:17 22.70187 114.11795 7977 ft 279 kts 302°
2026-05-05 19:17 22.71178 114.09981 7902 ft 280 kts 298°
2026-05-05 19:17 22.72113 114.08119 7685 ft 277 kts 297°
2026-05-05 19:18 22.73029 114.06264 7441 ft 277 kts 297°
2026-05-05 19:18 22.73939 114.04418 7196 ft 276 kts 297°
2026-05-05 19:18 22.74855 114.02561 6952 ft 276 kts 297°
2026-05-05 19:18 22.75750 114.00751 6709 ft 275 kts 297°
2026-05-05 19:19 22.76662 113.98902 6464 ft 275 kts 297°
2026-05-05 19:19 22.77566 113.97073 6224 ft 274 kts 297°
2026-05-05 19:19 22.78458 113.95274 5983 ft 274 kts 297°
2026-05-05 19:19 22.79368 113.93436 5732 ft 274 kts 297°
2026-05-05 19:20 22.80271 113.91617 5486 ft 273 kts 297°
2026-05-05 19:20 22.81162 113.89812 5244 ft 273 kts 297°
2026-05-05 19:20 22.82064 113.87977 4996 ft 273 kts 297°
2026-05-05 19:20 22.82957 113.86153 4756 ft 273 kts 297°
2026-05-05 19:21 22.83851 113.84332 4514 ft 272 kts 297°
2026-05-05 19:21 22.84739 113.82519 4265 ft 272 kts 297°
2026-05-05 19:21 22.85614 113.80732 4119 ft 263 kts 297°
2026-05-05 19:21 22.86446 113.79029 3996 ft 251 kts 297°
2026-05-05 19:22 22.87212 113.77357 3863 ft 239 kts 289°
2026-05-05 19:22 22.87360 113.75654 3736 ft 226 kts 256°
2026-05-05 19:22 22.86739 113.74150 3631 ft 214 kts 238°
2026-05-05 19:22 22.85944 113.72789 3498 ft 207 kts 233°
2026-05-05 19:23 22.84871 113.71870 3371 ft 197 kts 196°
2026-05-05 19:23 22.83495 113.71751 3328 ft 197 kts 178°
2026-05-05 19:23 22.82123 113.71825 3247 ft 195 kts 177°
2026-05-05 19:23 22.80765 113.72018 3165 ft 195 kts 165°
2026-05-05 19:24 22.79511 113.72553 3109 ft 195 kts 155°
2026-05-05 19:24 22.78249 113.73235 2842 ft 201 kts 153°
2026-05-05 19:24 22.77012 113.73925 2572 ft 201 kts 153°
2026-05-05 19:24 22.75779 113.74598 2295 ft 189 kts 153°
2026-05-05 19:25 22.74652 113.75209 2040 ft 174 kts 152°
2026-05-05 19:25 22.73605 113.75781 1828 ft 160 kts 151°
2026-05-05 19:25 22.72596 113.76335 1608 ft 163 kts 151°
2026-05-05 19:25 22.71586 113.76887 1392 ft 161 kts 151°
2026-05-05 19:26 22.70632 113.77408 1182 ft 148 kts 151°
2026-05-05 19:26 22.69756 113.77886 973 ft 134 kts 151°
2026-05-05 19:26 22.68949 113.78306 793 ft 123 kts 153°
2026-05-05 19:26 22.68168 113.78727 655 ft 128 kts 151°
2026-05-05 19:27 22.67360 113.79182 526 ft 132 kts 151°
2026-05-05 19:27 22.66524 113.79639 356 ft 134 kts 152°
2026-05-05 19:27 22.65684 113.80099 182 ft 135 kts 152°
2026-05-05 19:27 22.64860 113.80552 26 ft 127 kts 152°
2026-05-05 19:28 22.64260 113.80881 21 ft 63 kts 153°
2026-05-05 19:28 22.63843 113.81111 21 ft 62 kts 152°
2026-05-05 19:28 22.63607 113.81251 21 ft 27 kts 143°
2026-05-05 19:28 22.63487 113.81393 21 ft 19 kts 123°
2026-05-05 19:29 22.63447 113.81470 21 ft 9 kts 99°
2026-05-05 19:29 22.63450 113.81500 21 ft 0 kts 67°
2026-05-05 19:29 22.63464 113.81531 21 ft 12 kts 63°
2026-05-05 19:29 22.63517 113.81609 21 ft 11 kts 10°
2026-05-05 19:30 22.63610 113.81567 21 ft 17 kts 333°
2026-05-05 19:30 22.63735 113.81498 21 ft 22 kts 334°
2026-05-05 19:30 22.63866 113.81446 21 ft 15 kts 27°
2026-05-05 19:30 22.63925 113.81530 21 ft 14 kts 26°
2026-05-05 19:31 22.63967 113.81499 21 ft 8 kts 253°
2026-05-05 19:31 22.63948 113.81454 21 ft 3 kts 243°
2026-05-05 19:31 22.63942 113.81442 21 ft 0 kts 243°